Theta_e
329 329 331 331 329 331 327 325 324 323 321 321 320 317 316 317 316 312 315 317 323 324 324 323 321 319 317 316 314 313 312 310 309 309 309 309 309 309 309 309 309 309 309
330 329 329 329 326 329 326 323 321 320 318 315 308 308 308 309 310 308 308 313 319 320 320 320 319 318 316 314 313 311 310 309 307 307 306 307 308 308 308 307 307 308 307
329 330 327 327 320 323 323 321 319 316 313 308 303 302 303 304 304 302 302 304 308 313 315 316 315 314 313 313 312 310 308 306 307 306 305 306 306 307 307 306 306 306 306
327 328 325 325 317 316 319 317 314 312 310 305 301 299 298 299 300 300 299 299 299 304 308 310 310 310 310 310 309 308 307 306 305 304 304 304 304 305 305 304 304 304 304
325 326 326 321 314 313 313 312 308 307 301 299 295 294 294 295 296 296 296 296 296 297 300 304 304 305 306 306 306 306 305 304 303 303 303 302 302 303 303 303 303 302 303
324 325 325 319 314 311 310 310 307 305 302 299 293 290 289 289 290 291 291 292 292 293 294 293 294 299 302 303 303 303 303 302 302 301 301 301 302 302 302 302 302 302 302
324 326 323 320 315 310 309 308 302 299 295 293 289 287 287 287 287 288 290 290 288 288 288 288 290 291 295 299 300 301 301 301 301 300 299 299 301 300 300 300 300 300 301
324 324 323 321 316 310 307 306 300 297 294 294 292 289 283 285 286 287 288 287 286 287 286 287 288 289 291 293 295 296 298 298 299 298 298 298 298 298 298 298 299 299 300
324 324 321 318 316 312 306 305 301 300 293 294 294 293 287 286 285 287 286 287 286 286 285 286 286 287 288 290 290 291 293 294 294 295 295 296 296 296 296 297 297 298 298
323 322 320 317 315 311 306 305 303 302 298 294 293 295 297 291 289 283 286 285 286 284 285 287 286 286 287 287 288 288 289 290 290 291 292 293 293 294 295 295 296 296 297
321 319 318 315 312 308 306 305 302 301 299 297 296 294 293 293 292 287 282 283 285 286 287 286 287 286 286 287 287 286 287 287 288 289 289 290 291 292 292 293 294 295 295
318 318 314 312 310 307 304 304 303 301 300 298 298 295 292 292 289 288 285 284 283 285 286 285 284 285 285 285 284 283 284 285 286 287 287 287 288 289 290 291 292 293 293
309 311 311 311 309 308 305 304 302 300 299 297 296 294 294 292 293 290 288 285 284 284 284 284 285 285 285 285 284 281 281 283 285 285 285 285 286 287 287 289 290 291 291
308 309 310 310 308 305 303 301 299 298 297 295 292 291 290 290 290 289 288 286 282 282 282 283 285 284 284 284 282 279 282 280 282 283 283 284 285 285 286 287 288 288 289
305 302 305 305 303 302 300 298 296 293 292 291 288 288 286 285 285 286 288 288 289 283 283 282 281 284 284 283 281 282 280 279 280 281 281 282 283 284 285 285 285 286 287
296 295 293 292 293 294 294 293 290 288 287 286 286 284 283 283 283 284 286 286 286 286 281 283 282 283 282 281 280 280 279 278 278 279 280 281 282 282 282 283 283 284 285
292 290 289 289 288 287 288 287 286 285 284 283 283 282 281 282 282 282 283 283 283 285 281 280 281 281 280 280 280 279 278 278 278 277 278 280 280 280 280 281 281 282 282
287 287 287 287 287 287 287 287 285 285 283 281 280 280 280 281 281 281 282 281 282 283 281 278 279 279 279 278 278 277 276 276 276 276 278 278 279 279 279 279 279 279 279
286 287 287 286 286 285 284 284 284 282 281 281 280 280 280 280 280 281 281 281 281 280 281 279 277 278 278 277 275 276 275 275 275 275 276 276 277 277 277 277 277 277 276
287 287 286 286 285 284 283 282 281 280 280 280 280 280 280 280 281 281 280 280 279 278 277 276 275 275 275 275 274 273 272 274 273 274 274 274 274 274 275 275 275 274 274
285 284 283 282 282 282 281 280 280 280 279 279 279 280 280 281 281 281 279 278 278 277 276 274 273 274 273 272 271 272 271 272 272 273 272 271 271 271 271 272 272 273 275
282 282 281 281 281 282 284 283 280 279 279 279 279 280 281 282 281 281 280 279 278 276 274 273 273 271 272 271 272 271 271 269 267 274 270 269 270 269 270 270 272 274 275
281 281 281 281 281 282 283 282 281 280 279 279 279 279 279 280 280 278 279 279 278 277 276 274 272 272 271 272 271 271 270 269 268 270 268 266 270 268 270 270 272 273 274
281 281 281 282 281 281 283 282 281 279 279 278 278 278 278 277 277 276 276 275 274 274 274 274 274 273 273 273 273 271 269 269 268 269 269 263 269 267 269 269 271 272 273
281 281 281 281 281 281 282 282 280 278 277 277 278 278 278 278 278 278 276 274 273 273 274 274 274 273 273 273 271 270 268 266 265 266 268 265 265 266 267 267 268 269 271
281 281 280 281 281 280 282 281 279 278 276 276 277 277 278 278 279 278 275 273 271 272 272 271 271 270 269 268 269 268 267 264 264 263 266 262 265 264 262 266 265 267 267
Wind_Speed
9 7 9 7 8 8 9 9 9 8 9 9 9 10 10 11 12 7 6 10 13 16 18 18 20 16 15 16 14 14 13 13 13 13 13 13 13 13 13 14 15 16 16
11 11 8 7 8 9 9 9 9 9 9 9 10 9 10 9 11 11 7 10 14 15 15 17 18 16 15 14 14 13 12 12 11 11 12 12 13 14 14 14 16 16 16
15 14 8 8 7 8 12 10 11 10 9 9 11 9 9 10 10 10 8 7 9 16 13 15 15 14 13 13 13 12 11 10 12 11 12 12 13 13 14 15 16 17 15
14 14 8 7 8 7 9 10 10 10 10 9 9 8 8 8 10 10 8 7 7 7 12 14 13 12 11 11 11 10 10 10 10 10 11 11 12 13 13 14 15 16 18
15 12 11 7 10 9 8 9 9 10 10 10 9 7 7 7 8 7 9 9 9 8 7 14 15 12 11 9 9 9 8 10 10 11 12 12 11 13 14 15 17 18 18
17 15 12 13 12 9 9 10 12 10 9 12 10 9 7 6 6 6 7 7 7 8 7 7 6 8 12 10 8 8 8 9 11 12 13 13 14 14 15 18 19 19 18
18 17 13 14 13 12 13 13 13 15 10 11 9 8 7 6 6 5 5 6 6 6 7 6 5 3 5 12 11 10 9 10 12 12 13 13 15 17 18 18 19 19 20
19 17 17 16 15 12 14 16 16 12 5 11 6 6 4 3 3 4 4 4 6 5 6 7 6 6 5 6 9 11 11 12 13 14 14 15 15 17 18 19 19 20 20
19 20 17 15 16 14 13 16 16 15 12 10 14 5 6 5 7 3 3 4 5 5 4 6 6 7 6 6 5 8 11 11 13 14 14 15 17 18 19 19 20 20 21
17 18 17 16 16 10 15 15 14 12 12 14 8 2 2 8 6 6 3 3 3 5 5 4 6 5 5 5 7 9 8 10 11 12 14 15 16 18 19 19 20 21 22
17 17 17 17 16 12 13 16 16 12 11 11 10 6 5 4 6 5 5 6 3 3 4 5 5 4 5 4 4 6 7 9 11 12 14 16 17 18 19 20 20 21 23
13 17 17 17 17 15 16 15 15 15 14 11 8 8 6 4 5 4 4 6 7 5 5 5 5 4 4 3 6 7 7 9 10 13 15 15 16 18 19 19 20 21 22
6 13 19 19 16 18 17 15 16 14 13 11 11 8 4 2 4 3 7 6 5 3 4 5 4 4 4 3 5 4 6 9 11 13 14 15 16 18 18 19 21 22 22
10 12 15 17 18 16 15 16 11 11 13 11 12 8 7 4 5 1 6 9 6 3 5 6 5 4 4 4 6 1 2 6 10 12 13 14 16 17 18 19 22 22 22
6 7 6 9 12 15 14 14 11 12 11 11 10 10 9 5 6 4 5 4 7 6 4 6 4 6 4 4 4 2 5 7 9 11 14 16 16 18 19 20 20 21 22
9 10 10 10 8 8 10 13 11 12 14 9 9 12 9 5 6 4 5 4 3 4 6 4 3 7 5 3 4 4 5 8 6 11 15 16 18 18 18 19 20 20 21
12 12 12 13 15 11 15 13 13 15 16 13 12 13 10 8 7 7 6 6 5 5 8 4 5 6 5 2 2 4 4 6 6 11 15 17 17 17 18 19 20 22 24
13 15 14 14 13 17 13 15 16 15 16 15 12 15 11 8 11 9 7 8 7 6 6 10 7 4 3 1 3 5 4 5 6 10 16 17 17 18 19 21 22 22 22
15 15 16 17 16 13 16 12 16 17 15 16 12 12 11 11 11 9 8 7 7 7 6 6 5 2 2 1 4 4 5 7 6 11 15 16 16 19 21 22 22 21 20
13 15 16 14 16 16 16 16 16 17 15 12 12 12 11 11 12 11 9 9 8 8 6 6 5 3 1 1 3 5 6 6 8 8 10 12 15 18 21 21 21 21 20
14 15 18 17 18 15 12 17 16 16 15 14 13 13 13 12 14 11 7 8 8 6 5 5 4 2 0 2 4 4 7 8 10 10 6 7 10 10 10 14 17 19 21
15 18 16 18 19 12 28 24 16 15 14 13 14 15 14 14 17 18 17 12 8 6 6 3 3 2 0 2 3 5 7 8 7 1 8 12 11 10 9 9 19 24 22
18 18 18 19 17 15 26 24 22 12 12 12 13 12 11 8 12 12 14 13 12 10 7 3 3 1 1 3 5 8 9 9 10 10 12 11 8 9 9 9 20 24 20
17 16 17 17 16 14 25 25 21 13 12 13 12 11 12 11 9 9 8 7 6 6 4 3 3 2 2 5 7 7 9 10 10 10 8 8 7 10 10 11 19 19 15
16 16 13 16 15 14 24 24 17 12 12 12 11 10 10 10 11 11 7 6 5 4 5 5 2 3 6 9 7 6 6 8 9 7 7 9 8 12 10 9 7 11 14
15 11 14 13 15 14 20 20 15 9 11 9 9 9 10 8 10 9 6 4 3 3 3 2 3 5 5 6 8 5 5 7 7 8 2 5 8 8 8 3 5 9 8
Wind_Direction
181 179 192 158 151 150 159 151 142 135 124 119 109 105 97 98 98 80 60 54 109 117 117 117 114 111 108 100 91 85 78 69 58 55 44 40 35 37 34 25 21 20 15
190 184 169 165 159 167 159 150 144 137 126 117 101 97 98 97 97 88 73 58 72 101 115 113 110 109 104 99 96 89 83 73 64 54 48 37 31 26 25 23 16 8 9
192 194 174 162 156 161 155 144 139 132 126 115 107 98 95 96 96 86 75 63 61 64 83 96 102 103 102 104 98 90 76 69 55 48 41 31 26 20 24 16 14 3 6
188 189 175 157 150 145 154 152 148 141 134 129 120 105 99 96 95 90 82 69 57 62 71 82 88 89 91 91 86 84 80 67 55 34 35 37 23 15 15 14 6 356 355
179 179 176 152 153 152 149 150 146 146 136 126 111 97 90 94 97 98 96 88 79 74 68 74 73 78 80 78 74 69 68 56 47 33 21 14 13 10 4 353 354 353 356
181 183 179 159 158 156 154 151 144 140 136 133 114 96 83 78 80 93 101 101 100 99 93 78 56 62 75 70 67 60 51 45 45 30 14 6 1 0 356 353 350 346 349
185 185 180 168 167 167 162 154 141 140 135 133 114 95 75 79 87 99 109 113 106 102 95 84 80 73 76 71 61 52 43 40 35 25 14 3 359 355 351 349 343 340 339
186 190 179 180 175 162 157 156 154 142 129 170 135 122 140 113 88 113 124 126 127 120 113 103 93 95 84 72 61 52 39 34 28 18 8 360 356 350 346 341 339 334 336
188 188 183 178 173 169 168 167 164 163 155 193 175 135 152 180 143 171 163 143 147 130 119 103 110 93 89 84 70 56 40 32 22 11 0 354 351 346 340 338 335 333 333
188 190 182 175 169 171 172 173 179 172 164 171 179 197 25 133 165 167 199 169 171 143 136 140 126 112 98 85 72 58 40 30 15 1 354 346 343 340 338 333 331 329 329
182 182 180 177 170 160 174 177 175 176 173 163 188 149 131 112 110 144 158 167 188 171 175 170 144 128 108 106 92 63 33 18 5 358 346 342 338 338 333 329 327 328 324
188 182 174 174 166 169 173 181 179 177 170 172 176 169 160 163 157 143 122 149 170 163 171 173 156 142 130 119 89 60 28 8 356 349 343 339 335 333 328 327 325 325 322
173 180 170 175 173 178 175 175 174 174 171 169 162 153 115 84 120 120 112 136 144 124 171 189 172 159 147 149 99 43 36 358 354 342 335 335 333 330 327 324 322 322 319
181 176 181 182 171 172 169 166 166 164 156 145 136 117 105 108 82 100 133 140 118 136 166 156 168 168 163 150 93 117 358 358 339 330 334 335 331 328 324 323 322 318 315
169 160 176 181 164 159 160 155 148 144 128 128 116 109 109 101 103 91 116 146 148 154 151 169 150 172 152 159 82 357 337 355 327 332 335 334 331 325 325 325 323 320 317
123 116 105 100 82 109 124 130 121 119 113 108 109 107 103 105 91 92 100 100 51 111 120 132 123 154 155 153 111 321 324 298 321 324 334 332 324 324 328 326 323 320 317
116 112 113 113 110 103 111 108 104 107 103 103 105 105 105 106 106 100 93 86 80 91 122 116 126 144 154 154 262 311 315 321 321 331 325 321 324 325 326 320 319 317 313
110 111 108 102 104 112 107 112 113 112 108 102 105 110 109 112 99 96 91 90 87 74 121 135 138 143 161 135 318 313 320 314 321 316 317 321 318 320 317 317 316 313 309
111 107 109 110 102 90 92 92 104 104 106 109 119 112 110 106 101 101 96 93 86 78 76 121 125 124 108 15 323 321 324 312 309 317 315 309 309 311 314 312 311 308 308
111 112 103 108 105 101 101 101 98 101 107 105 104 100 100 107 112 108 103 102 97 94 98 106 104 119 163 28 319 315 315 321 317 311 300 285 298 297 300 301 301 300 307
93 93 98 94 90 95 97 103 111 106 104 100 98 96 94 96 97 102 113 102 108 115 116 119 121 127 126 323 323 323 315 322 313 297 285 293 301 297 288 291 290 293 300
91 90 91 93 94 100 108 111 106 104 106 107 105 101 105 106 105 102 98 101 104 118 121 122 118 122 135 322 326 325 318 326 322 279 306 298 294 282 278 282 289 295 300
90 90 91 90 95 107 110 107 108 105 110 110 112 118 111 105 109 111 108 103 95 92 76 98 103 76 327 349 327 320 312 297 286 301 312 293 299 279 290 282 283 291 293
95 95 95 97 102 106 112 112 107 107 106 113 116 118 119 126 133 131 119 121 119 86 86 99 102 112 330 320 310 303 298 298 289 284 287 280 302 294 299 283 277 280 287
93 88 98 101 106 116 120 118 116 112 112 109 109 119 129 132 139 134 133 135 117 100 89 84 74 313 303 305 306 301 291 301 304 302 312 282 290 303 287 278 260 281 281
96 107 104 107 112 116 121 120 115 114 119 116 116 118 123 130 130 142 141 129 123 132 165 213 280 307 315 306 306 278 280 280 292 305 117 279 303 328 313 239 265 291 291